Wind_Speed
50 52 53 54 55 57 57 57 56 57 59 61 63 65 64 64 69 73 78 81 84 86 86 84 87 85 78 70 63 56 47 42 41 37 40 44 49 49 46 46 46 47 48
53 54 56 57 57 58 58 58 58 60 61 63 64 64 63 67 72 77 80 83 84 86 84 86 84 76 67 60 55 45 38 39 40 42 44 45 44 45 46 45 43 43 43
53 55 56 57 57 57 57 58 61 61 63 64 64 66 67 73 76 79 82 85 85 84 85 83 76 66 58 53 44 38 37 38 42 47 43 42 42 43 44 44 42 40 39
55 55 57 57 57 57 59 60 61 62 62 63 67 71 75 79 81 84 89 87 85 84 82 75 66 57 52 42 35 35 35 38 44 44 42 42 41 41 42 40 37 32 32
55 57 57 56 57 58 59 61 61 59 64 73 80 83 80 81 85 87 89 87 86 83 75 66 57 52 43 35 33 33 36 40 43 41 41 41 40 39 38 34 30 29 32
55 56 55 57 59 59 59 60 60 60 64 68 74 80 82 85 87 88 86 87 82 72 63 55 52 45 37 32 32 33 37 41 39 38 38 37 36 35 30 28 29 31 32
55 55 57 58 59 60 60 61 64 67 70 73 77 80 87 88 87 86 85 78 69 60 54 52 46 38 33 32 32 34 37 41 39 40 39 37 34 31 27 27 30 33 35
56 56 56 57 57 61 66 67 71 76 79 78 81 84 84 84 83 81 74 66 58 53 51 47 39 33 30 30 31 33 37 38 37 39 39 36 34 29 26 27 30 31 35
56 56 57 59 60 62 72 66 74 80 78 81 85 82 81 81 76 72 65 58 53 50 46 42 35 30 29 28 30 32 35 36 36 37 37 34 31 27 26 27 30 32 32
57 58 60 60 60 62 69 75 85 82 81 80 83 81 79 76 71 64 58 53 48 45 40 37 33 29 28 28 29 31 33 33 33 35 35 34 30 25 25 27 29 32 30
57 59 61 62 68 69 73 78 82 85 84 83 80 75 74 71 64 57 53 48 45 41 35 33 30 27 27 27 28 30 31 30 32 33 33 31 28 24 24 26 28 30 27
60 61 62 64 67 72 77 79 81 81 78 75 71 72 75 67 59 53 48 45 42 37 32 30 29 26 25 26 27 28 29 29 32 33 34 32 27 23 22 24 26 28 24
62 64 67 70 72 74 75 74 72 74 73 71 72 76 70 60 54 50 45 42 39 34 30 28 28 27 25 26 27 27 27 29 31 32 32 33 27 22 20 22 23 25 22
68 70 72 72 72 72 69 70 69 71 72 73 74 76 66 56 50 46 43 40 37 30 28 28 27 26 25 25 25 26 27 28 29 30 30 30 27 23 19 19 20 22 22
71 72 72 71 70 70 68 68 71 72 74 72 73 73 62 54 48 43 40 38 36 30 25 26 28 27 25 25 25 26 27 27 28 28 28 29 29 23 18 16 18 19 20
71 72 71 69 67 66 67 71 72 72 72 73 74 68 58 53 47 42 39 37 35 31 25 26 26 26 24 24 25 26 26 27 26 26 27 29 28 25 20 15 16 17 17
71 68 65 67 67 68 71 74 74 71 74 76 72 64 56 50 44 41 40 36 34 31 28 27 26 25 24 24 24 25 25 26 26 26 26 28 27 26 20 15 13 14 15
70 68 70 69 71 72 75 74 76 79 79 73 65 59 53 49 44 41 40 37 34 32 28 27 27 26 24 24 24 24 26 26 25 24 24 24 24 24 22 16 12 12 12
68 68 70 72 74 76 76 79 82 83 81 69 60 53 50 47 43 41 40 37 34 32 30 27 27 27 26 25 25 24 25 26 25 23 23 21 21 22 22 18 13 10 9
69 71 73 75 77 78 82 84 82 77 72 63 58 52 47 46 42 40 39 37 33 32 32 30 28 27 26 26 25 24 24 25 23 23 22 20 19 20 20 20 15 11 9
71 71 74 76 80 84 85 81 74 68 63 56 52 50 46 46 42 39 37 35 32 31 32 34 32 30 28 26 26 24 25 25 23 22 21 20 19 19 19 18 18 13 10
72 74 78 83 85 82 76 69 61 57 55 53 49 46 44 43 40 37 35 34 32 31 29 29 28 28 27 26 26 26 25 25 24 23 21 20 19 19 18 17 16 15 11
77 82 85 83 77 71 64 61 58 56 53 50 47 43 41 41 37 35 33 32 30 30 29 29 29 27 26 26 25 25 25 26 25 24 23 21 20 19 18 17 16 15 14
84 85 78 74 67 64 63 60 56 53 51 49 46 42 40 40 36 33 31 30 29 29 29 28 29 30 28 28 28 27 27 26 26 26 24 23 22 20 19 18 17 15 15
81 77 71 67 66 61 56 52 49 47 45 44 43 41 39 38 36 33 32 30 29 29 28 28 28 30 28 27 28 28 28 28 28 28 27 26 25 23 21 20 19 17 15
74 69 67 64 58 51 45 43 44 44 44 44 44 42 40 38 36 34 34 33 30 30 30 29 27 27 26 25 26 27 27 29 30 30 30 29 28 26 24 22 20 19 18
Wind_Direction
305 306 307 307 307 307 307 306 306 304 306 306 306 306 307 308 307 309 310 310 311 311 313 314 314 314 311 308 305 304 300 298 299 298 296 298 295 292 290 288 285 282 281
307 308 308 307 308 307 307 307 305 305 305 306 306 305 307 308 308 308 309 309 310 313 316 315 315 312 310 307 305 303 296 299 301 301 302 300 298 296 294 291 288 284 281
307 307 306 306 306 305 305 305 306 306 307 306 307 307 308 307 307 308 306 308 314 316 316 316 314 311 308 306 304 298 299 299 301 304 304 304 301 297 295 294 291 288 284
305 304 304 306 306 306 306 307 307 307 307 309 310 311 309 307 306 306 308 314 316 316 316 314 311 309 308 304 297 294 297 299 305 306 306 305 301 300 299 295 291 288 285
304 304 306 306 304 305 305 307 307 306 307 304 305 307 305 305 307 308 312 316 316 317 314 312 311 309 307 300 294 296 300 306 307 306 307 307 305 304 301 297 295 290 290
304 304 305 304 305 305 307 305 306 305 305 305 306 305 304 305 308 314 316 317 317 314 313 313 310 309 303 297 297 299 302 306 306 305 310 308 309 306 301 297 294 295 297
303 304 305 306 307 307 306 308 308 306 306 306 304 302 304 309 315 315 315 315 314 313 314 312 310 306 299 297 299 303 308 311 312 315 317 314 313 308 302 300 302 305 303
305 306 306 307 305 304 305 305 306 309 309 304 300 305 312 315 315 316 315 314 314 314 313 310 307 302 295 298 299 304 310 312 313 318 318 317 315 308 304 306 308 310 309
305 305 305 306 306 304 299 297 306 308 304 306 312 316 316 317 316 315 314 314 314 314 311 309 305 300 294 297 298 307 311 313 317 321 320 317 315 306 305 309 314 315 313
304 304 305 305 306 302 300 292 300 303 305 315 316 317 317 317 317 315 314 314 313 312 309 308 305 298 296 298 300 306 311 314 319 325 324 322 317 307 306 313 318 318 317
305 304 306 305 301 300 299 297 299 305 311 311 313 316 319 318 316 314 313 312 311 311 309 310 306 296 296 297 301 305 310 315 322 327 329 326 319 307 306 315 319 320 319
306 307 305 302 300 299 300 305 308 309 311 316 319 322 323 318 314 313 313 311 309 308 308 311 306 296 293 294 298 305 311 318 326 330 332 331 322 310 306 315 320 322 321
307 306 305 304 304 305 306 307 309 314 317 320 323 325 323 316 312 312 312 309 307 304 305 310 309 297 294 296 299 303 309 317 324 329 331 333 326 315 305 314 321 322 321
308 307 306 305 306 306 306 308 314 316 318 320 321 324 321 316 311 308 309 308 304 298 300 306 309 304 293 294 298 301 304 312 318 325 331 334 331 321 307 313 321 324 323
307 306 305 305 305 307 311 314 316 317 318 318 320 322 318 317 311 308 308 306 303 294 292 297 303 308 304 294 296 300 300 304 312 321 331 335 337 327 313 310 321 326 324
306 305 305 306 308 309 310 313 315 316 316 317 318 317 314 315 311 308 309 306 302 292 287 290 296 300 302 301 296 297 298 301 307 316 323 333 336 334 322 307 320 326 328
305 304 302 304 306 308 312 314 314 313 314 315 314 312 309 309 308 306 306 305 300 288 285 287 292 295 298 298 298 297 297 298 301 306 315 322 330 336 329 313 310 324 329
306 305 306 307 309 311 312 312 311 311 312 313 310 307 304 303 303 302 303 302 300 290 279 281 286 287 292 298 298 297 295 296 299 304 309 315 324 330 338 324 301 315 325
305 305 307 308 309 309 310 310 311 310 310 311 309 305 300 298 297 298 299 298 296 287 277 276 280 284 287 289 295 297 296 297 299 302 305 311 316 327 334 331 313 291 314
305 307 308 308 308 309 310 310 309 308 308 308 306 303 299 296 294 294 293 292 289 282 274 273 274 279 285 287 288 291 295 298 297 298 301 305 310 317 324 334 324 300 281
307 307 307 308 308 309 309 308 307 306 307 306 304 301 299 296 296 293 288 286 283 276 269 269 273 277 279 281 282 284 286 293 293 292 296 300 301 307 314 322 331 314 284
307 308 308 309 309 308 308 307 306 305 303 301 300 299 295 294 293 290 285 282 280 272 268 269 271 275 279 281 281 281 283 286 289 287 290 294 298 301 305 308 319 327 302
309 310 310 310 309 309 307 305 303 300 298 296 296 294 291 290 290 287 283 278 273 264 266 270 274 275 276 278 279 279 280 282 286 285 287 291 293 294 296 298 301 314 320
311 312 311 311 310 308 306 303 301 299 298 296 296 293 290 290 289 285 279 277 271 263 260 264 270 272 273 272 273 273 274 276 278 280 282 284 286 287 287 289 288 293 308
313 313 312 311 310 308 305 303 301 300 298 296 294 293 292 289 286 282 277 274 268 265 265 267 268 268 268 267 269 271 271 272 272 274 276 277 279 280 280 279 278 279 287
315 314 314 313 311 310 307 306 303 300 297 293 291 289 288 285 283 278 274 270 267 266 265 264 264 261 262 265 270 272 273 274 274 273 273 272 272 273 273 271 268 268 273
Height
5730 5725 5719 5713 5707 5700 5693 5686 5679 5672 5664 5656 5648 5640 5632 5624 5613 5604 5594 5583 5572 5561 5550 5539 5526 5512 5500 5488 5478 5468 5460 5454 5451 5452 5447 5443 5437 5430 5426 5422 5417 5413 5410
5718 5712 5707 5700 5694 5687 5680 5673 5666 5659 5651 5643 5634 5626 5618 5608 5597 5587 5577 5565 5554 5543 5530 5518 5505 5492 5481 5470 5462 5455 5449 5444 5440 5437 5435 5429 5423 5416 5410 5406 5404 5400 5396
5707 5702 5695 5689 5683 5675 5667 5660 5652 5645 5637 5628 5619 5611 5603 5592 5583 5572 5559 5548 5536 5523 5511 5498 5486 5475 5465 5456 5449 5444 5440 5435 5431 5425 5420 5415 5409 5403 5398 5393 5389 5386 5383
5697 5691 5684 5677 5669 5661 5654 5646 5638 5631 5622 5614 5606 5597 5586 5575 5566 5555 5543 5529 5517 5505 5492 5480 5469 5460 5451 5445 5439 5435 5431 5426 5421 5414 5409 5404 5397 5391 5385 5381 5378 5374 5372
5686 5677 5671 5664 5656 5649 5641 5633 5625 5616 5608 5600 5591 5581 5569 5558 5547 5534 5523 5511 5498 5486 5474 5464 5453 5445 5439 5434 5429 5426 5421 5416 5410 5404 5399 5392 5386 5380 5374 5369 5367 5365 5362
5672 5664 5659 5651 5643 5635 5627 5619 5610 5602 5593 5584 5574 5564 5552 5541 5529 5514 5501 5489 5478 5467 5457 5447 5439 5432 5428 5423 5420 5416 5412 5406 5401 5395 5389 5382 5376 5369 5365 5361 5358 5354 5353
5659 5653 5646 5638 5630 5621 5613 5604 5596 5586 5577 5567 5558 5547 5535 5522 5510 5498 5485 5473 5461 5451 5442 5434 5427 5422 5417 5414 5411 5406 5401 5395 5388 5383 5377 5371 5366 5360 5357 5354 5349 5344 5338
5647 5639 5632 5624 5616 5607 5598 5589 5581 5571 5560 5549 5537 5526 5516 5504 5493 5480 5467 5457 5447 5437 5429 5423 5418 5413 5408 5406 5402 5398 5393 5387 5382 5375 5368 5361 5356 5351 5348 5345 5340 5336 5328
5633 5625 5617 5610 5602 5594 5585 5575 5565 5555 5544 5532 5517 5506 5496 5487 5475 5463 5452 5443 5435 5426 5419 5413 5408 5404 5400 5398 5395 5391 5386 5380 5374 5367 5360 5354 5348 5344 5340 5337 5332 5326 5320
5619 5612 5604 5596 5587 5579 5570 5561 5550 5540 5530 5516 5503 5490 5479 5469 5460 5448 5438 5429 5423 5417 5409 5403 5399 5395 5392 5389 5387 5383 5378 5373 5368 5361 5353 5346 5341 5336 5333 5329 5325 5319 5313
5606 5599 5590 5581 5573 5563 5554 5543 5532 5522 5512 5502 5491 5478 5465 5453 5444 5435 5426 5418 5412 5406 5400 5394 5390 5386 5384 5381 5379 5375 5371 5367 5361 5354 5348 5341 5335 5330 5327 5323 5318 5313 5307
5592 5584 5575 5566 5558 5547 5535 5524 5512 5503 5494 5485 5475 5464 5449 5438 5428 5422 5414 5407 5401 5397 5392 5387 5382 5379 5377 5374 5372 5368 5364 5359 5354 5348 5342 5335 5329 5324 5321 5318 5313 5308 5302
5577 5569 5560 5550 5540 5531 5521 5510 5499 5486 5477 5468 5458 5448 5436 5424 5415 5408 5403 5397 5392 5387 5383 5379 5374 5371 5369 5366 5364 5361 5357 5353 5348 5343 5337 5330 5324 5319 5316 5313 5309 5303 5298
5562 5552 5542 5533 5523 5513 5505 5495 5484 5475 5463 5451 5442 5433 5423 5414 5406 5399 5392 5387 5382 5378 5375 5371 5367 5364 5361 5359 5356 5354 5350 5347 5343 5338 5333 5326 5320 5314 5311 5308 5305 5300 5294
5545 5535 5525 5516 5506 5497 5487 5478 5469 5458 5447 5439 5428 5416 5407 5401 5393 5388 5382 5377 5372 5369 5367 5364 5360 5356 5353 5351 5349 5346 5344 5341 5337 5333 5328 5322 5316 5310 5306 5304 5301 5297 5291
5530 5519 5509 5499 5489 5481 5473 5465 5455 5444 5433 5422 5412 5402 5395 5386 5380 5375 5371 5366 5362 5358 5358 5355 5352 5349 5346 5343 5341 5339 5336 5334 5331 5328 5323 5318 5313 5307 5302 5300 5297 5294 5289
5513 5504 5495 5486 5476 5467 5457 5446 5437 5433 5420 5410 5397 5389 5381 5375 5368 5363 5359 5355 5351 5348 5347 5345 5343 5341 5339 5336 5334 5332 5329 5327 5324 5321 5318 5314 5309 5304 5299 5296 5294 5291 5287
5494 5485 5475 5466 5456 5448 5439 5430 5420 5410 5404 5398 5384 5374 5367 5361 5356 5352 5348 5344 5341 5337 5337 5336 5334 5332 5331 5328 5326 5324 5322 5320 5318 5315 5312 5309 5305 5301 5296 5292 5290 5288 5286
5476 5467 5458 5449 5440 5430 5421 5410 5400 5389 5379 5374 5367 5361 5351 5347 5343 5339 5336 5333 5330 5327 5326 5326 5325 5324 5323 5321 5318 5317 5315 5312 5310 5308 5306 5303 5300 5297 5293 5289 5287 5285 5284
5461 5451 5441 5430 5421 5411 5400 5389 5377 5367 5359 5353 5348 5343 5338 5333 5330 5326 5323 5321 5318 5316 5315 5315 5315 5315 5314 5312 5310 5309 5307 5305 5303 5301 5300 5297 5295 5293 5290 5287 5283 5282 5281
5443 5435 5424 5413 5402 5391 5379 5367 5357 5348 5341 5336 5332 5327 5322 5318 5315 5313 5311 5308 5307 5305 5305 5304 5304 5304 5304 5303 5302 5301 5299 5298 5296 5295 5293 5292 5290 5288 5286 5283 5281 5278 5277
5425 5415 5405 5393 5381 5369 5357 5347 5339 5332 5326 5321 5317 5313 5308 5304 5302 5300 5298 5296 5294 5294 5294 5294 5294 5294 5293 5293 5292 5292 5291 5290 5289 5288 5287 5285 5284 5282 5281 5280 5278 5275 5274
5405 5394 5383 5369 5357 5347 5337 5329 5323 5316 5310 5306 5303 5299 5295 5291 5289 5287 5285 5284 5283 5283 5283 5283 5283 5284 5284 5284 5283 5283 5283 5282 5281 5280 5280 5278 5278 5277 5276 5275 5274 5272 5270
5385 5371 5358 5347 5337 5328 5319 5310 5304 5298 5294 5289 5286 5283 5281 5277 5276 5275 5273 5272 5271 5272 5272 5272 5273 5273 5273 5274 5274 5274 5273 5274 5273 5272 5272 5271 5271 5270 5270 5269 5268 5268 5267
5361 5349 5337 5327 5318 5309 5301 5294 5288 5283 5279 5275 5272 5269 5267 5264 5263 5261 5260 5260 5260 5260 5261 5261 5262 5263 5263 5263 5263 5264 5264 5264 5264 5264 5264 5264 5263 5263 5263 5262 5262 5262 5262
5340 5328 5319 5309 5299 5291 5285 5280 5275 5270 5265 5261 5257 5255 5253 5251 5249 5248 5247 5247 5248 5249 5249 5250 5251 5252 5253 5253 5254 5254 5254 5253 5253 5253 5253 5254 5254 5254 5254 5255 5255 5256 5256